TIMESTAMP,CO2_1_1_1,H2O_1_1_1,TAU_1_1_1,TAU_SSITC_TEST_1_1_1,H_1_1_1,H_SSITC_TEST_1_1_1,LE_1_1_1,LE_SSITC_TEST_1_1_1,FC_1_1_1,FC_SSITC_TEST_1_1_1,WD_0_0_1,WS_0_0_1,WS_MAX_0_0_1,U_SIGMA_0_0_1,V_SIGMA_0_0_1,W_SIGMA_0_0_1,USTAR_0_0_1,MO_LENGTH_0_0_1,ZL_0_0_1,FETCH_MAX_0_0_1,FETCH_70_0_0_1,FETCH_80_0_0_1,FETCH_90_0_0_1,PA_0_0_1,RH_0_0_1,TA_0_0_1,VPD_0_0_1,T_SONIC_0_0_1,T_SONIC_SIGMA_0_0_1
[yyyymmddHHMMSS],[mmolCO2 mol-1],[mmolH2O mol-1],[kg m-1 s-2],[#],[W m-2],[#],[W m-2],[#],[umolCO2 m-2 s-1],[#],[Decimal degrees],[m s-1],[m s-1],[m s-1],[m s-1],[m s-1],[m s-1],[m],[#],[m],[m],[m],[m],[kPa],[%],[deg C],[hPa],[deg C],[deg C]
20220608003000,411.22205410156698,9.7788456028449069,1.3334314393696261E-002,0,0.70282639886434650,0,23.236574694844737,0,-1.8738164815880394,0,269.61084584086802,0.96322618927538539,2.0287135260735738,0.27617130916725224,0.25399510534177627,0.16075325713097913,0.10936356257110032,-154.70357160416049,-0.12281552263457263,128.88440863089644,494.00000000000000,715.00000000000000,1275.0000000000000,93.472655510944534,44.826206896551724,17.860000000000014,11.253548839212423,17.816657191413981,7.2539737282354855E-002
20220608010000,411.23465311006714,10.225652115230302,2.6332693331252294E-002,1,-7.3866651055511463,1,4.4852819660328880,1,-0.81453634588254609,1,308.96447824723106,1.4220096479844653,2.7852971240637543,0.43134179497352343,0.50000314185371009,0.10207202577695694,0.15357665896541817,40.775657643606394,0.46596428109306515,124.49255711161670,1142.0000000000000,2090.0000000000000,5615.0000000000000,93.507207479817708,47.957999999999998,17.503333333333330,10.378760617328524,17.658825402153866,0.22827038021054877
20220608013000,412.28562280816055,9.8099073526171541,4.9929502339608633E-002,0,-39.467840039531026,1,40.460539712202817,0,0.87882820025675112,1,330.75850287755600,2.3547457521125530,4.7635415709345201,0.59089803052491230,0.62559176627041946,0.27979489205526487,0.21116143998698025,19.837950540094820,0.95776022637009683,99.971168051437203,182.77917936674638,218.73999524820860,273.83651741866277,93.525302777994796,48.272333333333336,16.747666666666646,9.8341109747991524,16.850945998297732,0.44154708109616636
20220608020000,413.27928432778305,10.072075718384003,2.0709944421996716E-002,0,-11.749691177027490,0,5.0030823934758288,0,0.29371302288240719,0,350.27569179155569,2.1005415311669200,3.8256473711271775,0.48347216370127888,0.41928367024032409,0.20144435389206050,0.13576553198819510,17.711937390182239,1.0727228524719004,330.60068670514715,3225.0000000000000,6009.0000000000000,-9999.,93.530778961551292,52.803333333333335,15.754999999999995,8.4224802329010604,15.954978557798256,0.30627854676895788
20220608023000,414.57248156660569,10.289325936988172,2.5558808660395404E-002,1,1.8485378948776334,2,-2.9134999163898274,2,-8.3022903413508417E-002,2,6.2489194063895184,1.8558035941435131,3.1621463128471832,0.33786568601628192,0.41961428626205449,0.18673115498913115,0.15061612600844801,-153.74288885780200,-0.12358295164840599,205.26327979837964,769.00000000000000,1108.0000000000000,1959.0000000000000,93.553761978515624,56.611666666666665,15.006333333333316,7.3795807124079147,15.251505350748744,0.35641313432455646
20220608030000,418.07590394096911,10.516376125833826,1.3037189710315703E-002,0,-8.4335173507427683,1,7.0780199171739149,0,1.1972869674899778,0,24.851543436645045,1.7378434360206625,3.6706384962863625,0.41390804961773714,0.30675805944120149,0.21672845209321498,0.10738028182488787,12.214734711886981,1.5554983753768978,370.86156507034934,3440.0000000000000,6316.0000000000000,-9999.,93.584580557291673,61.537666666666667,14.057999999999993,6.1529231443803667,14.295717080010263,0.26103213962770216
20220608033000,420.35397194408091,10.261737071158832,0.10665475180090396,1,30.272092783891381,2,-38.895289444123989,2,-7.1263362421246441,2,41.713652605875808,1.5831514444514121,3.7054257853444104,0.57582248509944245,0.52512837518982391,0.26841547599796384,0.30683338644411773,-79.389978536575342,-0.23932491669898373,139.35769313905837,254.79030891480878,304.91892541812416,381.72231162752530,93.585879400879605,62.125999999999998,13.534666666666681,5.8561942020336462,13.779739360213739,0.33964902177839618
20220608040000,421.22173920379930,10.325102154393500,1.6715480366887947E-003,0,-0.18133318994175179,1,1.6859922787986719,1,0.14065763917950153,1,99.637776597025336,1.4445901134915757,1.9665195833552624,0.12097798766735884,0.14051856978393856,8.0933762770416154E-002,3.8397707749618482E-002,25.975368080560926,0.73146220454211575,1147.8510009743643,-9999.,-9999.,-9999.,93.591915869357635,63.368333333333332,13.326333333333309,5.5877062630927341,13.694889550103085,0.11400148214308511
20220608043000,418.53996186125892,9.7370528237021912,1.8605046655114688E-002,1,-0.33346993223019383,2,9.6939886800629118,2,-0.55779470310808932,1,108.83060893408839,1.6086864210118450,2.6434772445307373,0.22708418613200929,0.29668971255442195,6.6385560415606823E-002,0.12817160904270278,525.24194292623406,3.6173805721125350E-002,190.17267897365869,1260.0000000000000,2108.0000000000000,4830.0000000000000,93.579064816840287,58.484000000000002,13.655333333333317,6.4699532253166989,14.028934014214428,0.16951064327298218
20220608050000,421.13774752396614,10.305385018258695,7.1553594725670940E-003,1,-7.7040502297985203,1,22.916858246301953,1,0.99684624011311307,1,140.69736747935016,2.2023425693025209,3.0307823523489414,0.31004649594057831,0.26131232643816243,0.18491695059521529,7.9417725835675149E-002,5.4089350111590155,3.5127062833629275,1073.1367408457043,9673.0000000000000,-9999.,-9999.,93.579482224609364,64.179000000000002,13.100333333333310,5.3840129900570854,13.519248569064700,0.53453251137285973
20220608053000,420.15012904979136,9.8259298550572201,2.6226020775839257E-002,0,-29.968640358503663,0,18.838403811278798,1,1.2042451881528144,2,155.72635698720822,1.7859778026153721,3.0694760110099932,0.43888234039673341,0.31063583347507084,0.24017627109033565,0.15197474157723689,9.7420797510874451,1.9503022440233209,191.97881128164340,1563.0000000000000,2765.0000000000000,7002.0000000000000,93.568316592664928,62.158000000000001,12.859333333333325,5.5988135381592086,13.218229244656072,0.67503302800903842
20220608060000,416.33643783619550,9.3297004561087249,2.1449230936425455E-003,1,3.6987170243519709,1,-1.5255687141786773,1,-0.24448648719682523,1,141.43251889121200,1.9068661571442269,2.4914513214899165,0.17258202699852451,0.17412237579255202,6.5011475379328054E-002,4.3538541476675970E-002,-1.8555682725670153,-10.239450782220572,198.71272821372114,552.00000000000000,738.00000000000000,1152.0000000000000,93.546959491102427,55.298000000000002,13.854333333333329,7.0571831098351456,14.317068575541157,0.44707511368911157
20220608063000,415.64475529081824,9.0953770640029887,2.2169020146947212E-002,1,-2.4436234819323146,2,-0.78353683056045575,2,-7.9519087664409058E-002,2,146.35142295608583,1.9340607209581340,3.4178422029433859,0.43417268253896391,0.48273007942452495,0.13073356570316277,0.14007488292458101,93.520669498160586,0.20316364395117703,215.61833823616558,1975.0000000000000,3613.0000000000000,9699.0000000000000,93.537251324435772,52.463000000000001,14.271999999999991,7.7108177826892277,14.569874524434397,0.30726891137174817
20220608070000,419.46231033380366,9.3745398721151876,4.5851665250168760E-002,0,-80.923352554603184,1,42.855826686528033,1,6.8206520915089746,1,193.94718959876292,2.4323826258736543,3.8795873543789412,0.45378307602665541,0.55945023334965960,0.28490682665392369,0.20091946200683633,8.3367217686033541,2.2790733009173052,198.95858366349273,1582.0000000000000,2782.0000000000000,6964.0000000000000,93.577816659505203,59.316333333333333,12.857333333333315,6.0184566708112532,13.016657558864949,0.64897977457744838
20220608073000,424.14251478334489,9.9948751396089115,2.2687863730108816E-002,1,-14.654662934546138,0,-3.8962936658699356,2,-1.4211058062595525,2,185.33065041161240,2.3052737509570704,3.4187785748144330,0.42996822509291155,0.38821418429889443,0.16365028644125340,0.14119278642509020,15.976714031437565,1.1892307744016373,368.30578810670613,3590.0000000000000,6687.0000000000000,-9999.,93.572681592447921,65.981666666666669,12.210333333333324,4.8231712138949385,12.544719681633865,0.44549316561390556
20220608090000,416.50953615883645,9.3730232744731055,3.3453014570926698E-002,1,28.256258389482980,2,-7.1596756017349685,2,-2.8494787820934353,2,192.70098044635324,2.2844156547511698,3.2624177993131251,0.28956493722442439,0.46180726235951614,0.23278563988665801,0.17190806014774485,-14.947890019258352,-1.2710824053107861,129.24347216824933,388.00000000000000,528.00000000000000,851.00000000000000,93.516261267361116,56.325666666666670,13.637333333333345,6.7983458426145731,14.116535030788896,0.85395629046934196
20220608093000,417.93122675770428,9.2544257961121108,6.5552562016617452E-003,1,-10.147113621381026,1,6.1320020613017601,1,0.77325289880849113,1,196.30865825682739,2.2238668463523381,3.4794023882270899,0.39352596152492059,0.28698654008923558,0.18695757413520334,7.6062819953749000E-002,3.6053826031228033,5.2698983967868331,1159.8050557079243,9600.0000000000000,-9999.,-9999.,93.510758742187491,56.594000000000001,13.367999999999995,6.6390648870669269,13.601464605543356,0.57872105081840441
20220608100000,415.53607571499862,9.2920302644671509,1.3303304243227366E-002,1,8.4459887126756694,1,-3.7254653717823483,1,-0.35507433639609376,1,180.05955711455778,1.5481334667972009,2.3827236440934723,0.33922350762971931,0.33273867634558846,9.2415954722711108E-002,0.10850477647605103,-12.570987231121455,-1.5114166970882377,132.14552139691580,392.00000000000000,533.00000000000000,855.00000000000000,93.476982775429903,54.368333333333332,14.041666666666686,7.2920912123629913,14.562162921158176,0.68862553456599851
20220608103000,415.53462019013085,9.0467853220076808,5.7378228488461861E-003,1,-11.396477103085051,1,12.730390626272476,1,0.62808892054182019,1,204.97120382453676,2.0190468353028015,3.3317732543567073,0.33628912522332249,0.20473336346367407,0.14341033537722961,7.1232554145658225E-002,2.6362396611195864,7.2072354726394172,1008.6763630164837,7708.0000000000000,-9999.,-9999.,93.496732985243057,53.392000000000003,13.911999999999978,7.3856968489945096,14.163450416141131,0.70275119706487177
20220608110000,415.32810446989038,9.2307104229545995,3.6420653445687456E-002,0,-38.070144687184111,0,21.624903251454501,0,0.19707713583728212,2,215.41744118021052,2.0707989837095497,3.3850661431599685,0.46100855965001980,0.29732840331853710,0.30149114057307530,0.17930929012857055,12.588297895658995,1.5093382884235720,191.01413898751753,1625.0000000000000,2912.0000000000000,7538.0000000000000,93.501081720269099,56.293666666666667,13.408666666666647,6.7027508734285872,13.635994162665497,0.62409774626537673
20220608113000,415.41513330564663,9.4542952961709883,4.5197968532093215E-002,0,-6.9839979849120217,2,-2.4450564544137836,2,-3.2427528768740945,1,211.24468077844759,1.7681310545633737,3.8407445524970778,0.56025085173823330,0.44986675388434505,0.30581275492390925,0.19970871695331407,94.806145465854613,0.20040894930005398,111.08106165124251,955.00000000000000,1716.0000000000000,4463.0000000000000,93.498526789496523,58.232666666666667,13.255999999999972,6.3419159232153470,13.237793120490210,0.37999998352221609
20220608120000,416.02503027324985,9.9086168581576235,2.9797401777888952E-002,0,-8.9696203726463075,1,24.975293069101056,1,-2.1917744704293458,1,201.74131577767014,1.3376013989002817,2.6951033223508580,0.45453812074243971,0.29387750330364926,0.20289215646411413,0.16226378968634433,39.592074473108859,0.47989402558092525,101.51729836790143,906.00000000000000,1646.0000000000000,4364.0000000000000,93.478186660807296,59.924333333333330,13.533333333333303,6.1960845952343453,13.594410575866675,0.26892109576315121
20220608123000,413.48125777860338,10.419007011750818,3.8195393198366234E-002,1,0.70668329117316031,2,45.300812320391060,0,-4.2231931875937230,0,208.44617149361014,0.69589904514152645,1.9745293183073294,0.36432610463875176,0.26769507484472160,0.24107344674029010,0.18412628057287561,-734.14575526510544,-2.5880419335992701E-002,33.551656780117007,166.00000000000000,257.00000000000000,513.00000000000000,93.446541959886929,58.499333333333333,14.673999999999978,6.9089205856625693,14.673859361367249,0.47076478297384283
20220608130000,411.46616801441678,10.256322417494633,6.3947524514409590E-002,1,35.616043557961596,0,81.036062081337661,0,-7.5384429506758170,0,226.25344519120532,0.76511016769384699,2.4526321129408735,0.43787872436185332,0.30062417161268828,0.34368010505810259,0.23877073921921502,-31.760112419520095,-0.59823465827288458,93.565613386737425,171.06778249279708,204.72444432258922,256.29071080556258,93.424004262803820,53.225666666666669,15.896000000000015,8.4227346394816944,15.886959246317588,0.30428249203515562
20220608133000,412.80818310330187,9.9992998186286908,6.8078791905602357E-002,1,60.325425291710182,1,110.10252278926887,1,-4.5454806122675437,1,214.00006888358922,1.3814414743710126,3.4146276498289176,0.49588985511049971,0.57283321435817003,0.44256598982509360,0.24671310700641039,-20.684994240961956,-0.91854026057086324,78.456015637921013,143.44261884892185,171.66417900611398,214.90318170313282,93.425562570963535,49.139333333333333,16.751666666666665,9.6717392560647770,16.594044309828064,0.29503797153455380
20220608140000,413.54054963716982,10.385705738558164,8.1413681680674505E-002,1,54.259742510637039,1,114.67547922754916,1,-13.529492131683591,1,235.83184565795989,0.92543713074170586,3.1225966174363315,0.55999352421461146,0.51623879099596426,0.40817825977155581,0.26995485811553194,-30.131034560853028,-0.63057907824662818,89.951398938687220,164.45984578718449,196.81643177655451,246.39081749683319,93.428051616753478,50.054333333333332,17.059000000000026,9.6846943227021551,16.988579453362377,0.25111255525898302
20220608143000,411.61604745512358,10.614700548605914,0.16809574802881852,1,14.116261442508565,1,-25.731797931251013,2,-3.9448023601071194,1,254.08928437338520,1.0963384566107510,2.8418882223861974,0.38494219890186404,0.69609059148174535,0.39727034613699325,0.38799688389896136,-343.84379093228853,-5.5257650424583575E-002,122.87076746512197,224.64695054760290,268.84502417372863,336.56206795438783,93.416135592230901,50.888666666666666,17.140333333333331,9.5720900717819610,17.129550850762257,0.18039224961014610
20220608150000,407.56496780730106,11.410370651244184,6.4143833915409759E-002,1,61.035416135747667,0,142.48711975610635,0,-12.178958967193882,0,216.84688989712589,1.1697644119799562,3.9421906791064569,0.60664579043966371,0.84044987186522901,0.49098102546756794,0.23987247977939963,-18.793200553652678,-1.0110039503785919,70.597199385339636,129.07419629831406,154.46884695936112,193.37666645292782,93.411235781032985,53.438000000000002,17.509666666666647,9.2895949893391414,17.523492384168833,0.25377202433196122
20220608153000,406.65118489876039,11.087698794156871,5.9575139682869371E-002,1,63.789721614645806,0,117.95890122426744,0,-13.190208041537558,0,190.92849809232769,0.75506947694324555,3.0617919956395490,0.56705006624309462,0.78700413761102928,0.37860656249669894,0.23130030049524439,-16.118954037930127,-1.1787365331081889,84.419999927207883,154.34668424496832,184.71356034802025,231.23945864727776,93.392614206380216,50.943666666666665,17.809666666666658,9.9741366748967888,17.695829542371939,0.31609704577702391
20220608160000,405.97236599784350,11.220880880633068,6.5811674319200389E-002,1,113.71439643674435,0,219.12785190464882,1,-9.4784638772344980,0,190.25421123731729,0.83128062068547692,3.4123473188520905,0.66679163424089005,0.76629721617973579,0.51933192138254802,0.24333278930167590,-10.527245967741830,-1.8048405117749553,68.274635943736669,124.82780958344671,149.38700660396486,187.01480536108559,93.379016815538193,49.994999999999997,18.296333333333337,10.482855204480973,18.167847201029474,0.40896895456391225
20220608163000,406.74109484673801,10.550763055499559,0.10745709788278118,1,154.13220398220571,0,55.813637089683873,2,-8.6858743357868011,1,179.36052720187874,1.2425273108163191,5.3808456070642299,0.92925849997321375,0.92136789059693203,0.56313743509618008,0.31122683020146180,-16.247641261331744,-1.1694005113972252,77.915705011147011,142.45475869994300,170.48196271078879,213.42318718827468,93.369043152777792,45.287666666666667,18.890666666666675,11.904428440079746,18.545706653171123,0.44654917820276052
20220608170000,409.17631868313134,9.7297526259659310,0.19881430211511203,0,47.392073568121312,0,114.06400501997676,0,-10.348750623608522,0,173.14637627865773,1.2457864885731667,4.3130611780890931,0.84404749427090131,0.83764426022364769,0.53875037616777910,0.42308919973373743,-132.72641585245742,-0.14315160910485941,103.20253900919231,188.68715607043080,225.81033444421428,282.68774309509161,93.361978097873262,42.468666666666664,18.621666666666670,12.309038659670524,18.403673343234630,0.30921281347612500
20220608173000,410.03415984655612,9.9481934071763387,0.33349875741761514,1,92.596949925853124,2,-128.65514492884679,2,-14.641380247153306,1,193.03846741897425,0.35205737138897364,4.5306203749679526,1.4598678250741055,0.55126514678329464,0.43278014956221733,0.54742065096977788,-147.14271183968137,-0.12912634110414764,151.11165953244296,276.28030821722530,330.63696596071020,413.91824657313248,93.360520545468589,45.119000000000000,18.010333333333335,11.300210000587905,17.917327951057700,0.51184300245574466
20220608180000,411.19095439249566,11.390312759788513,1.0604594573893491,1,82.405788136306782,2,371.00978541704796,1,-27.037793276391316,1,251.34281787609331,2.7035019063370611,8.9935549898740579,1.9264598454704069,1.8651867582232244,0.69829567734616504,0.97121569622452864,-924.00867696443493,-2.0562577466717132E-002,163.03316923890395,298.07663013114450,356.72159643337841,446.57310861005891,93.432006972439240,62.087666666666664,15.130999999999972,6.5001440578404663,15.564267159356234,1.0444932087677636
20220608183000,412.35865731223572,11.910160991916461,0.25429010621582926,0,-133.60426974714088,1,301.59089306776235,1,-7.2183108164651015,1,192.76915349631844,3.0445004275743024,6.9696026724358502,0.94787937768911590,1.2553744818146713,0.59493187376516110,0.47451191769435758,66.464027757571060,0.28586892249899298,104.49098177726151,191.04284037820582,228.62948691045375,286.21698745002203,93.417798497178822,71.093333333333334,13.724333333333334,4.5251489263680815,14.232373415629013,0.89845696904074568
20220608190000,407.61676468144344,12.951787627124983,9.1720072540768097E-002,0,-43.333684627480118,0,140.20989296194617,0,-8.7193224459462932,0,171.29995949095147,2.0773754938452083,6.1682479443529505,0.80630761507173654,1.0772990595046699,0.48734628055379248,0.28548307775103771,44.624777081022053,0.42577243501974349,81.629863684313221,149.24542532464335,178.60865630009906,223.59684321354842,93.390888872829876,73.303666666666672,14.540999999999997,4.4063259529196310,14.927155809190538,0.35008964622224109
20220608193000,406.07033759522767,13.615211302705184,0.16565620581258028,1,104.06999458086395,1,161.31443810637666,0,-17.545981777920659,0,125.95763386629628,1.8621861687123549,4.7642318664634473,0.78661386810287537,0.68206610189373107,0.49346243112065474,0.38437825497803907,-45.349216581783232,-0.41897085401101053,102.53182160777192,187.46087074629077,224.34278410886060,280.85054422108675,93.361104673177081,72.668999999999997,15.447000000000003,4.7820397863320458,15.679975210401835,0.48118159059688698
20220608200000,408.84842170133243,12.169392225987052,0.13761824347351020,0,11.816372990381671,1,-19.340924989335129,2,-4.8758797455490290,1,48.757059242946013,2.4848380475638439,6.8108441622929359,1.1866407185627175,0.79815338362696808,0.58206379218107918,0.35041587063562157,-302.55056788903715,-6.2799419391499550E-002,83.434457463923451,152.54479829943725,182.55716307931149,228.53990515426307,93.366155613281251,63.739333333333335,15.742000000000019,6.4655148395512905,15.887141173468763,0.25227593468835091
20220608203000,408.83179213320153,11.889093947420612,0.35784770987547854,0,18.968642789519599,1,145.79599804931436,0,-10.765215514502396,0,57.741969246220421,2.6935721298585671,7.2415068753780840,1.1777450866775554,1.0255322132029689,0.74482136802897836,0.56482132408573738,-789.13663837767797,-2.4076945710011084E-002,100.35570482167653,183.48223522445645,219.58137354691598,274.88982320706344,93.350314325737855,63.317333333333337,15.479333333333329,6.4316041432417848,15.634612137688578,0.12859016200340703
20220608210000,410.29108590702793,12.018031020207584,5.7763001030862259E-002,1,11.116650775323398,2,-5.3908574703087426,2,-1.8942059490633709,0,95.969455506488515,1.0427954623118227,3.4866680511448340,0.59126114371169369,0.47966455518207696,0.23599361331820928,0.22668055678494234,-87.061144881898301,-0.21823742412041802,121.24563614765974,221.67569219023216,265.28918678992909,332.11058150088468,93.379126222439240,66.338999999999999,14.926666666666677,5.6958389211463372,15.197360291375105,0.18096613839510747
20220608213000,408.24485731828230,12.971089286256172,0.70424675106878165,1,-132.15803218454002,1,497.00223259487717,1,-15.768688588086599,1,234.62392069951065,1.8814134010514425,8.7620606843337185,1.8288939972548632,1.6154532207177423,0.55418724220055993,0.79085408803404977,311.07157118351495,6.1079191286146348E-002,166.42048061491352,304.26971565404369,364.13313806817564,455.85147925130047,93.392107488064241,74.127666666666670,14.391333333333364,4.2292014446720234,14.717941441006076,0.46594286045300692
20220608220000,411.99404206133983,12.483961073351084,0.37561903128577623,1,-303.20090695392076,0,407.23765737426362,1,-8.6468914739943111E-003,2,182.80248771260455,3.0938102658942777,7.3380621832871986,1.1516162534878911,2.0623872190256076,0.58585742810771024,0.57655088263729160,52.524560829416750,0.36173553286254068,123.62077453364053,226.01820267134070,270.48606274316359,338.61645351059974,93.380014743608669,76.131000000000000,13.389333333333354,3.6559101468639232,14.202171079650725,1.1636263526359032
20220608223000,411.46120636698225,13.802994916503632,0.32397981232514822,0,-69.147231033382312,0,5.2361264097017921,2,-3.7878844594704359,1,214.80411263626590,3.3844007490636865,6.9745108446167121,1.0637970193983286,1.1677026488861850,0.69677987838540378,0.53496610721978044,184.01279865988855,0.10325368745202208,101.35365945070085,185.30681456761727,221.76492901661294,277.62337554500601,93.371129394531252,88.069999999999993,12.696000000000026,1.7462839667058803,13.201416240268316,0.28395126673511145
20220608230000,410.26156710795834,13.857887522654275,0.12666537625203983,0,-43.364505174826512,0,43.829958825821038,0,-4.5939469366504131,0,163.72253886648130,2.3359364163815588,5.1899797078681349,0.69131611654122804,0.72322805692306302,0.48027945946318196,0.33474165823551616,71.862643047468765,0.26439328132489615,93.805326591271523,171.50605468329076,205.24894419833080,256.94732241057164,93.328392289713534,86.796666666666667,12.971999999999980,1.9679217999641401,13.551969194200353,0.25822682427741867
20220608233000,408.74920871599977,14.243898377297723,6.5594891229102892E-002,0,-14.864808907715762,0,63.486489132934253,1,-5.3778709661669071,0,192.89376937890455,1.4825112966762533,3.0860014834047576,0.50454481523214934,0.43928778237922722,0.29122087732079782,0.24095749780845072,78.202481790860290,0.24295904125923246,107.60420689554705,196.73480880665707,235.44131937028857,294.74459336829023,93.334393561958279,88.403333333333336,13.112666666666655,1.7444221359478456,13.607306104554709,0.13337557551258536